Flag for Slovakia Weather past 2 weeks in Bratislava, Slovakia

Now
61 °F

Broken clouds.


Feels Like: 61 °F
Forecast: 59 / 73 °F
Wind: 10 mph from Northwest

Location: Bratislava Ivanka

Current Time: Sep 2, 2014 at 7:58:00 PM

Latest Report: Sep 2, 2014 at 7:30 PM


Visibility: N/A

Pressure: 29.98 "Hg

Humidity: 88%

Dew point: 57 °F

Location of BratislavaLocation

Historic Weather in Bratislava — Graph

°F

Bratislava temperature yesterday

Maximum temperature yesterday: 63 °F (at 12:00 AM)
Minimum temperature yesterday: 57 °F (at 3:00 AM)
Average temperature yesterday: 60 °F

Past Weeks' High & Low Weather Summary

 TemperatureHumidityPressure
High77 °F (Aug 29, 4:00 PM)100% (Aug 31, 12:00 AM)30.15 "Hg (Aug 31, 12:00 AM)
Low48 °F (Aug 29, 6:00 AM)33% (Aug 28, 4:00 PM)29.74 "Hg (Aug 26, 5:30 PM)
Average62 °F76%29.98 "Hg
* Reported Aug 18 6:00 PM — Sep 2 6:30 PM, Bratislava, Weather by CustomWeather, © 2014

Note: Actual official high and low records may vary slightly from our data, if they occured in-between our weather recording intervals... More about our weather records

Advertising

Bratislava weather history for previous 24 hours

 ConditionsComfort  
Time TempWeatherWind HumidityBarometerVisibility
6:30 PM
Sep 2
61 °FPartly sunny.9 mph88%29.98 "HgN/A
6:00 PM61 °FPartly sunny.9 mph88%29.98 "HgN/A
5:30 PM61 °FMore clouds than sun.9 mph88%29.98 "HgN/A
5:00 PM61 °FLight rain. Broken clouds.14 mph88%29.98 "HgN/A
4:30 PM59 °FLight rain. Broken clouds.13 mph94%29.98 "HgN/A
4:00 PM59 °FLight rain. Broken clouds.12 mph94%29.98 "HgN/A
3:30 PM59 °FRain. Broken clouds.13 mph94%29.98 "Hg6 mi
3:00 PM59 °FRain. Broken clouds.17 mph94%29.98 "Hg6 mi
2:30 PM59 °FRain. More clouds than sun.16 mph88%29.98 "HgN/A
2:00 PM59 °FLight rain. Broken clouds.16 mph94%29.98 "HgN/A
1:30 PM59 °FLight rain. Broken clouds.13 mph88%29.98 "HgN/A
1:00 PM59 °FRain. Broken clouds.14 mph88%29.98 "Hg6 mi
12:30 PM59 °FLight rain. Mostly cloudy.14 mph88%29.98 "HgN/A
12:00 PM59 °FLight rain. Partly sunny.13 mph88%29.98 "HgN/A
11:30 AM59 °FLight rain. Broken clouds.17 mph88%29.98 "HgN/A
11:00 AM59 °FLight rain. Broken clouds.18 mph88%29.98 "HgN/A
10:30 AM59 °FLight rain. Broken clouds.14 mph82%29.98 "HgN/A
10:00 AM59 °FLight rain. Broken clouds.14 mph82%29.98 "HgN/A
9:30 AM57 °FLight rain. Partly sunny.16 mph88%29.95 "HgN/A
9:00 AM57 °FLight rain. Partly sunny.17 mph88%29.95 "HgN/A
8:30 AM57 °FPartly sunny.16 mph88%29.95 "HgN/A
8:00 AM57 °FLight rain. Partly sunny.16 mph88%29.95 "HgN/A
7:30 AM57 °FLight rain. Partly sunny.16 mph88%29.95 "Hg5 mi
7:00 AM57 °FLight rain. Passing clouds.16 mph88%29.95 "Hg5 mi
6:30 AM57 °FPartly cloudy.17 mph88%29.95 "HgN/A
6:00 AM57 °FPassing clouds.17 mph82%29.95 "HgN/A
5:30 AM57 °FPartly cloudy.16 mph88%29.95 "HgN/A
5:00 AM57 °FPartly cloudy.16 mph88%29.95 "HgN/A
4:30 AM57 °FPartly cloudy.16 mph88%29.95 "HgN/A
4:00 AM57 °FPartly cloudy.17 mph88%29.95 "HgN/A
3:30 AM57 °FLight rain. Partly cloudy.17 mph88%29.92 "HgN/A
3:00 AM57 °FLight rain. Partly cloudy.17 mph88%29.95 "HgN/A
2:30 AM57 °FLight rain. Mostly cloudy.18 mph88%29.95 "HgN/A
2:00 AM57 °FLight rain. Mostly cloudy.16 mph88%29.95 "HgN/A
1:30 AM59 °FLight rain. Mostly cloudy.16 mph88%29.95 "HgN/A
1:00 AM59 °FLight rain. Mostly cloudy.14 mph88%29.95 "HgN/A
12:30 AM59 °FLight rain. Passing clouds.16 mph88%29.95 "HgN/A
12:00 AM59 °FLight rain. Low clouds.15 mph88%29.95 "HgN/A
11:30 PM
Sep 1
59 °FLight rain. Mostly cloudy.16 mph88%29.95 "HgN/A
11:00 PM59 °FLight rain. Partly cloudy.18 mph88%29.92 "HgN/A
10:30 PM59 °FLight rain. Mostly cloudy.13 mph88%29.95 "HgN/A
10:00 PM59 °FLight rain. Mostly cloudy.12 mph88%29.95 "Hg4 mi
9:30 PM59 °FLight rain. Mostly cloudy.13 mph94%29.95 "Hg4 mi
9:00 PM59 °FLight rain. Fog.10 mph94%29.92 "Hg3 mi
8:30 PM59 °FLight rain. Fog.10 mph94%29.92 "Hg2 mi
8:00 PM61 °FLight rain. Fog.8 mph88%29.92 "Hg2 mi
7:30 PM61 °FLight rain. Fog.6 mph94%29.89 "Hg2 mi
7:00 PM61 °FRain. Fog.6 mph94%29.89 "Hg1 mi
Weather by CustomWeather, © 2014

See weather overviewHow to use our weather pages